User: anonymous   Login
Location: Chacón
(10.5789°N, 66.9317°W)
Time: 07:30:19
(UTC+00:00)
Language:

SL-8 R/B - Orbit

View from above orbital plane
View from above orbital plane
View from above satellite
View from above satellite

Ground track
Ground track

The orbit data is extracted from the following two-line orbital elements,

1 33066U 08031G   24196.85987667  .00000834  00000-0  16516-3 0  9995
2 33066  48.4425 253.1553 0007964 251.5164 108.4882 14.71368016862915
Epoch (UTC): 14 July 2024 20:38:13
Eccentricity: 0.0007964
inclination: 48.4425°
perigee height: 651 km
apogee height: 662 km
right ascension of ascending node: 253.1553°
argument of perigee: 251.5164°
revolutions per day: 14.71368016
mean anomaly at epoch: 108.4882°
orbit number at epoch: 86291

The dashed part of the orbit path shows where the satellite is in the earth's shadow,  

DLR